User: anonymous   Login
Location: Unspecified
(0.0000°N, 0.0000°E)
Time: 12:07:11
(UTC+00:00)
Language:

Tiangong 1 - Orbit

View from above orbital plane
View from above orbital plane
View from above satellite
View from above satellite

Ground track
Ground track

The orbit data is extracted from the following two-line orbital elements,

1 37820U 11053A   16043.10422071  .00019097  00000-0  24241-3 0  9993
2 37820  42.7635 279.3322 0011748 263.5805 254.6200 15.58976148250872
Epoch (UTC): 12 February 2016 02:30:04
Eccentricity: 0.0011748
inclination: 42.7635°
perigee height: 382 km
apogee height: 398 km
right ascension of ascending node: 279.3322°
argument of perigee: 263.5805°
revolutions per day: 15.58976148
mean anomaly at epoch: 254.6200°
orbit number at epoch: 25087

The dashed part of the orbit path shows where the satellite is in the earth's shadow,  

DLR